SCP
0 0 0 0 0 0 0 0 0 0 0 0 0 0 0 0 0 0 0 0 0 0 0 0 0 0 0 0 0 0 0 0 0 0 0 0 0 0 0 0 0 0 0 0
0 0 0 0 0 0 0 0 0 0 0 0 0 0 0 0 0 0 0 0 0 0 0 0 0 1 1 1 1 1 1 1 1 0 0 0 0 0 0 0 0 0 0 0
0 0 0 0 -0 0 0 0 0 0 0 0 0 0 0 0 0 0 0 0 0 0 0 0 1 1 1 1 1 1 1 1 1 1 0 0 0 0 0 0 0 0 0 0
0 0 0 0 -0 0 0 0 0 0 0 0 0 0 0 0 0 0 0 0 0 0 0 0 0 1 1 1 1 1 1 1 1 1 1 1 0 0 0 0 0 0 0 0
0 0 0 0 0 0 0 0 0 0 0 0 0 0 0 0 0 0 0 0 0 0 0 0 0 0 0 0 1 1 1 1 1 1 1 1 1 0 0 0 0 0 0 0
0 0 0 0 0 0 0 0 0 0 0 0 0 0 0 0 0 0 0 0 0 0 0 0 0 0 0 0 0 1 1 1 1 1 1 1 1 1 0 0 0 0 0 0
0 0 0 0 0 0 0 0 0 0 0 0 0 0 0 0 0 0 0 0 0 0 0 0 0 0 0 0 0 1 1 1 1 1 1 1 1 1 1 1 1 0 0 0
0 0 0 0 0 0 0 0 0 0 0 0 0 0 0 0 0 0 0 0 0 0 0 0 0 0 1 1 1 1 1 1 1 1 1 1 1 1 1 1 0 0 0 0
0 0 0 0 0 0 0 0 0 0 0 0 0 0 0 0 0 0 0 0 0 0 0 0 0 0 1 1 1 1 1 1 1 1 1 1 1 1 0 0 0 0 0 0
0 0 0 0 0 0 0 0 0 0 0 0 0 0 0 0 0 0 0 0 0 0 0 0 0 0 1 1 1 1 1 1 1 1 1 1 1 1 1 0 0 0 0 0
0 0 0 0 0 0 0 0 0 0 0 0 0 0 0 0 0 0 0 0 0 0 0 0 1 1 1 1 1 1 1 1 1 1 1 1 1 1 1 0 0 0 0 0
0 0 0 0 0 0 0 0 0 0 0 0 0 0 0 0 0 0 0 0 0 0 1 1 1 1 1 1 1 1 1 1 1 1 1 1 1 1 1 0 0 0 0 0
0 0 0 0 0 0 0 0 0 0 0 0 0 0 0 0 0 0 0 0 1 1 1 1 1 1 1 1 1 1 1 1 1 1 1 1 1 1 1 1 0 0 0 0
0 0 0 0 0 0 0 0 0 0 0 0 0 0 0 0 0 0 0 1 1 1 1 1 1 1 1 1 1 1 1 1 1 1 1 1 1 1 1 1 1 1 1 1
0 0 0 0 0 0 0 0 0 0 0 0 0 0 0 0 0 0 1 1 1 1 1 1 1 1 1 1 1 1 1 1 1 1 1 1 1 1 1 1 1 1 1 1
0 0 0 0 0 0 0 0 0 0 0 0 0 0 0 0 0 0 1 1 1 1 1 1 1 1 1 1 1 1 1 1 1 1 1 1 1 1 1 1 1 1 1 1
0 0 0 0 0 0 0 0 0 0 0 0 0 0 0 0 0 0 1 1 1 1 1 1 1 1 1 1 1 1 1 1 1 1 1 1 1 1 1 1 1 1 1 1
0 0 0 0 0 0 0 0 0 0 0 0 0 0 0 0 1 1 1 1 1 1 1 1 1 1 1 1 1 1 1 1 1 1 1 1 1 1 1 1 1 1 1 1
0 0 0 0 0 0 0 0 0 0 0 0 0 0 0 1 1 1 1 1 1 1 1 1 1 1 1 1 1 1 1 1 1 1 1 1 1 1 1 1 1 1 1 1
0 0 0 0 0 0 0 0 0 0 0 0 0 1 1 1 1 1 1 1 1 2 2 2 2 1 1 1 1 1 1 1 1 1 1 1 1 1 1 1 1 1 0 0
0 0 0 0 0 0 0 0 0 0 0 1 1 1 1 1 1 1 1 2 2 2 2 2 2 2 1 1 1 1 1 1 1 1 1 1 1 0 0 0 0 0 0 0
0 0 0 0 0 0 0 1 1 1 1 1 1 1 1 1 1 1 2 2 2 2 2 2 2 1 1 1 1 1 1 1 1 1 1 1 0 0 0 0 0 0 0 0
0 0 0 0 0 1 1 1 1 1 1 1 1 1 1 1 1 1 1 2 2 2 1 1 1 1 1 1 1 1 1 1 1 1 1 1 0 0 0 0 0 0 0 0
0 1 1 1 1 1 1 1 1 1 1 1 1 1 1 1 1 1 1 1 2 1 1 1 1 1 1 1 1 1 1 1 1 1 0 0 0 0 0 0 0 0 0 0
1 1 1 1 1 1 1 1 1 1 1 1 1 1 1 1 1 1 1 1 1 1 1 1 1 1 1 1 1 1 1 1 0 0 0 0 0 0 0 0 0 0 0 0
1 1 1 1 1 1 1 1 1 1 1 1 1 1 1 1 1 1 1 1 1 1 1 1 1 1 1 1 1 1 0 0 0 0 0 0 0 0 0 0 0 0 0 0
Wind_Speed
8 11 12 12 11 6 6 8 7 5 4 6 7 5 6 9 10 10 11 11 11 11 11 11 11 11 10 10 10 9 9 8 6 5 4 4 4 3 3 3 3 3 3 3
9 14 10 6 6 7 9 9 8 6 4 5 6 6 5 8 10 10 10 11 11 11 11 11 11 11 11 11 10 10 10 9 9 6 4 3 3 3 3 2 2 4 4 4
15 7 8 10 11 12 11 11 8 6 6 6 7 9 8 8 9 10 10 11 12 12 12 12 12 12 12 12 12 10 10 10 9 8 6 4 4 4 4 4 3 4 4 4
11 6 9 13 13 13 11 8 7 8 9 6 7 7 8 8 9 11 11 12 12 12 12 12 13 13 12 12 11 11 11 10 9 9 8 8 6 5 4 3 3 3 4 4
10 10 12 14 13 12 7 6 8 9 9 8 8 9 5 7 8 9 10 12 12 12 12 12 12 12 11 11 11 10 10 10 9 9 8 8 7 5 4 3 3 3 3 4
6 7 10 10 8 9 8 8 6 8 10 11 9 9 5 5 6 6 7 9 10 11 11 11 10 10 10 10 10 10 10 9 9 9 9 8 7 6 5 4 3 4 3 3
10 11 9 8 11 12 13 12 9 10 10 9 6 9 5 2 3 4 4 6 7 9 10 10 11 11 10 10 10 9 10 9 9 9 9 8 8 7 6 5 4 3 3 3
14 14 14 12 14 12 16 17 12 9 10 8 8 9 4 2 2 3 3 4 6 8 9 10 10 10 10 10 9 9 9 8 8 8 7 6 6 5 4 4 3 3 2 2
13 11 12 11 10 12 16 16 13 10 8 9 8 7 6 5 5 4 4 5 6 8 9 10 10 10 9 9 9 8 8 7 7 7 6 5 5 5 3 3 3 3 2 2
7 9 12 11 10 8 11 13 9 11 10 11 10 10 7 8 7 5 5 5 6 7 8 9 8 8 8 8 8 7 7 6 6 6 5 4 4 4 3 3 3 2 2 2
9 9 12 13 15 16 12 14 12 10 10 11 9 7 3 4 4 5 5 5 7 7 8 8 8 8 8 8 8 7 6 6 5 5 4 4 3 3 3 3 3 2 2 2
10 9 11 14 8 9 15 15 14 12 9 10 10 4 6 3 3 4 5 6 7 7 8 8 9 8 8 8 7 7 6 6 5 5 4 4 3 3 3 2 2 2 2 2
9 8 11 12 11 10 14 14 15 13 9 10 12 5 7 5 4 5 5 7 7 7 8 8 8 8 8 7 7 6 6 6 6 6 5 4 3 3 2 2 1 1 1 1
7 9 12 13 11 15 15 15 15 15 12 11 12 7 8 6 5 5 6 7 8 8 9 9 9 8 8 7 7 7 6 6 6 6 5 5 4 3 3 2 2 1 1 2
9 10 11 8 6 12 15 16 17 17 15 13 11 11 8 7 6 5 6 7 8 9 9 9 9 9 8 8 7 7 7 7 6 6 6 5 4 5 4 4 3 3 3 3
8 8 10 10 9 10 12 15 17 17 16 15 12 9 5 5 5 6 7 8 8 9 10 10 9 9 9 8 7 7 7 7 7 7 6 6 6 6 6 5 5 6 5 5
9 8 10 11 11 11 14 14 15 15 14 14 13 9 7 7 7 7 7 7 8 9 10 10 10 9 9 8 8 8 8 8 8 8 7 7 7 7 6 6 6 6 6 6
9 10 8 9 11 14 6 5 9 12 11 11 9 7 7 6 5 5 6 7 8 9 10 10 9 10 9 9 9 9 9 9 9 9 8 8 7 8 7 6 6 6 6 6
10 10 9 9 12 10 6 6 8 10 9 8 8 7 6 6 6 5 4 6 8 9 10 10 10 10 10 10 10 10 10 9 9 8 8 8 8 8 8 7 7 6 6 7
9 10 10 10 12 11 7 7 4 7 9 6 7 7 8 9 8 6 7 8 10 10 10 10 11 11 10 10 10 10 9 9 8 8 8 8 8 8 8 7 6 6 6 6
13 11 13 11 10 6 5 6 7 10 5 5 6 7 8 6 0 8 9 9 10 11 11 11 11 10 10 9 9 10 9 9 8 8 8 8 8 8 8 7 6 6 6 7
11 11 12 11 11 6 6 6 5 3 4 3 4 5 5 5 8 10 10 10 11 11 11 11 10 10 9 9 9 10 9 9 8 8 8 8 7 7 7 7 6 6 6 7
5 3 4 4 1 5 4 2 3 2 1 2 4 5 7 9 10 11 11 11 11 11 10 10 11 11 9 8 9 10 9 8 8 8 8 8 8 7 6 6 6 5 5 5
4 1 3 3 5 5 4 3 2 1 2 2 4 5 8 10 11 11 10 10 10 10 10 10 11 11 9 8 9 10 9 8 9 9 8 8 7 7 7 5 4 4 4 4
2 3 4 4 5 5 5 3 3 3 3 4 5 6 8 10 11 11 10 10 9 9 9 9 9 10 10 9 9 9 9 9 9 9 8 7 7 8 7 7 7 6 7 6
1 1 2 3 3 2 4 2 3 4 5 5 7 7 8 9 11 11 9 8 9 9 8 8 9 10 10 9 9 8 8 8 9 8 7 6 6 6 6 8 9 14 11 13
Wind_Direction
194 212 208 204 219 239 219 211 194 160 152 214 218 209 181 180 196 197 193 191 195 199 193 191 194 195 193 193 195 197 200 191 195 198 203 203 202 210 209 206 200 211 224 222
194 216 212 201 202 215 213 213 197 161 163 232 225 225 199 191 205 206 202 201 201 197 193 192 194 195 197 194 197 199 201 199 200 198 207 217 220 224 221 226 203 223 228 232
212 190 180 190 195 206 212 217 204 184 175 211 234 216 200 199 208 210 211 212 209 201 196 194 196 197 197 197 198 200 201 201 204 202 205 207 200 216 215 215 216 224 232 235
218 171 189 200 202 209 208 212 208 197 212 200 230 236 187 190 200 207 211 212 211 204 200 198 197 196 198 199 198 199 198 199 198 201 212 217 220 224 227 227 217 220 229 237
196 189 197 206 204 212 204 177 205 215 229 234 214 252 188 181 209 208 207 209 210 205 202 199 198 196 196 198 197 195 196 198 197 201 207 217 227 227 225 221 223 237 226 232
190 191 211 209 195 201 159 163 181 218 231 231 225 246 228 193 218 215 200 203 206 203 199 196 193 190 192 195 196 193 190 195 197 201 205 214 224 230 235 231 232 232 223 226
191 192 194 199 182 184 193 192 195 205 216 225 202 239 244 194 224 235 220 207 204 196 192 189 188 186 187 193 194 193 191 194 198 202 206 211 219 224 229 237 231 241 240 230
195 193 189 196 203 192 206 213 221 219 216 205 192 234 223 184 217 222 215 203 195 189 183 184 185 184 184 187 189 189 189 194 196 200 205 211 217 225 230 229 244 236 251 261
203 194 174 193 208 213 204 221 236 243 245 237 207 214 219 201 198 200 192 181 181 180 177 177 176 175 176 177 178 180 180 187 190 193 195 200 210 224 236 229 229 237 235 241
219 196 179 181 190 219 230 211 214 232 230 232 220 221 218 188 193 195 188 176 166 167 166 165 164 162 162 165 166 169 171 175 178 182 190 189 195 201 210 224 215 223 227 244
215 203 177 185 204 192 196 207 217 223 239 240 229 215 183 192 191 194 179 165 160 157 154 150 147 148 151 153 154 157 159 163 166 173 177 180 179 185 196 205 208 210 210 222
210 220 195 194 197 230 210 210 208 215 217 242 256 187 124 167 182 185 168 151 146 145 140 139 140 142 144 144 143 146 153 158 158 157 158 155 158 168 181 184 184 195 199 212
189 215 196 188 191 205 215 213 217 225 221 229 238 200 128 154 166 161 153 143 139 141 135 132 134 137 137 137 137 137 140 141 139 140 143 143 147 147 154 149 153 179 176 165
215 219 226 214 203 190 201 206 211 216 223 222 233 225 166 179 177 165 154 146 145 145 141 137 133 134 133 133 134 133 131 130 131 135 135 132 133 131 132 125 121 120 126 126
218 217 225 242 219 203 205 205 207 218 229 236 227 230 208 194 188 169 158 150 149 147 143 139 139 137 136 134 134 132 131 131 130 129 124 123 123 118 114 109 101 93 93 95
219 226 210 214 212 210 211 211 212 218 227 236 237 228 212 184 176 174 171 165 159 152 145 141 140 137 138 138 138 131 128 125 124 120 117 118 115 110 106 104 100 96 89 85
204 213 214 207 202 211 216 213 214 216 222 229 228 219 190 188 193 189 178 170 162 152 145 145 142 137 135 136 134 130 126 122 120 119 117 114 112 108 106 105 103 102 100 93
214 216 221 210 196 219 203 199 220 219 217 224 227 208 195 194 187 183 178 168 157 149 146 144 140 134 131 128 125 123 123 121 118 115 113 111 110 106 106 106 101 97 95 92
214 215 221 216 209 208 183 187 207 210 210 210 209 197 177 154 152 161 152 151 146 142 140 138 137 135 131 127 126 125 122 119 116 115 112 111 111 110 109 105 101 97 94 92
195 219 225 220 222 213 186 157 190 221 207 180 189 184 170 176 200 157 130 131 131 131 134 133 132 129 126 125 127 126 121 119 116 114 110 109 108 106 104 102 102 98 97 96
184 199 218 219 223 205 129 144 185 213 164 142 177 182 181 194 358 112 126 123 126 128 129 130 129 125 123 126 127 125 120 115 112 113 111 109 108 108 106 105 105 107 105 99
193 193 205 217 223 190 133 175 201 54 73 131 154 165 156 119 114 126 127 126 127 128 130 130 125 120 122 127 127 121 116 115 115 114 112 110 110 109 109 108 107 108 112 110
220 226 203 223 187 81 122 107 59 45 92 119 131 139 137 131 129 129 127 126 126 128 129 128 125 122 123 128 127 121 119 121 120 118 116 115 112 105 108 113 117 119 117 110
164 253 198 173 137 126 125 112 104 98 104 125 135 139 139 135 132 130 126 124 123 125 128 129 129 126 122 121 117 118 122 125 126 123 119 117 116 111 104 100 98 96 94 98
134 191 186 164 134 139 125 101 95 94 106 118 123 132 135 134 133 131 127 126 126 125 127 131 130 126 125 124 119 124 130 132 127 123 120 118 114 108 97 80 56 62 56 43
212 256 235 137 132 147 115 96 104 114 118 121 124 125 128 130 131 129 126 127 128 127 130 130 128 126 126 125 124 126 133 134 133 131 130 127 124 119 117 110 89 57 61 59